Time,TemperatureF,DewpointF,PressureIn,WindDirection,WindDirectionDegrees,WindSpeedMPH,WindSpeedGustMPH,Humidity,HourlyPrecipIn,Conditions,Clouds,dailyrainin,SoftwareType,DateUTC
2013-06-13 00:01:00,56.8,53.6,29.85,NW,310,0.0,0.0,89,0.00,,,0.00,meteobridge,2013-06-13 04:01:00,
2013-06-13 00:02:00,56.7,53.4,29.85,NW,310,0.0,0.0,89,0.00,,,0.00,meteobridge,2013-06-13 04:02:00,
2013-06-13 00:04:00,56.7,53.4,29.85,NW,310,0.0,0.0,89,0.00,,,0.00,meteobridge,2013-06-13 04:04:00,
2013-06-13 00:07:00,56.7,53.4,29.85,NW,310,0.0,0.0,89,0.00,,,0.00,meteobridge,2013-06-13 04:07:00,
2013-06-13 00:10:00,56.7,53.4,29.85,NW,310,0.0,0.0,89,0.00,,,0.00,meteobridge,2013-06-13 04:10:00,
2013-06-13 00:16:00,56.5,53.2,29.85,NW,310,0.0,0.0,89,0.00,,,0.00,meteobridge,2013-06-13 04:16:00,
2013-06-13 00:21:00,56.3,53.4,29.85,NW,310,0.0,0.0,90,0.00,,,0.00,meteobridge,2013-06-13 04:21:00,
2013-06-13 00:27:00,56.1,53.2,29.84,NW,310,0.0,0.0,90,0.00,,,0.00,meteobridge,2013-06-13 04:27:00,
2013-06-13 00:32:00,56.1,53.2,29.84,NW,310,0.0,0.0,90,0.00,,,0.00,meteobridge,2013-06-13 04:32:00,
2013-06-13 00:37:00,55.9,53.1,29.83,NW,310,0.0,0.0,90,0.00,,,0.00,meteobridge,2013-06-13 04:37:00,
2013-06-13 00:42:00,55.8,52.9,29.83,NW,310,0.0,0.0,90,0.00,,,0.00,meteobridge,2013-06-13 04:42:00,
2013-06-13 00:48:00,55.6,52.7,29.84,NW,310,0.0,0.0,90,0.00,,,0.00,meteobridge,2013-06-13 04:48:00,
2013-06-13 00:53:00,55.2,52.7,29.84,NW,310,0.0,0.9,91,0.00,,,0.00,meteobridge,2013-06-13 04:53:00,
2013-06-13 00:58:00,55.2,52.7,29.84,NW,310,0.0,0.0,91,0.00,,,0.00,meteobridge,2013-06-13 04:58:00,
2013-06-13 01:03:00,55.0,52.7,29.84,NW,310,0.0,0.0,92,0.00,,,0.00,meteobridge,2013-06-13 05:03:00,
2013-06-13 01:09:00,54.9,52.5,29.84,NW,310,0.0,0.0,92,0.00,,,0.00,meteobridge,2013-06-13 05:09:00,
2013-06-13 01:14:00,54.9,52.5,29.84,NW,310,0.0,0.0,92,0.00,,,0.00,meteobridge,2013-06-13 05:14:00,
2013-06-13 01:19:00,54.9,52.5,29.84,NW,310,0.0,0.0,92,0.00,,,0.00,meteobridge,2013-06-13 05:19:00,
2013-06-13 01:25:00,54.7,52.3,29.84,NW,310,0.0,0.0,92,0.00,,,0.00,meteobridge,2013-06-13 05:25:00,
2013-06-13 01:30:00,54.7,52.7,29.84,NW,310,0.0,0.0,93,0.00,,,0.00,meteobridge,2013-06-13 05:30:00,
2013-06-13 01:35:00,54.7,52.7,29.83,NW,310,0.0,0.0,93,0.00,,,0.00,meteobridge,2013-06-13 05:35:00,
2013-06-13 01:40:00,54.7,52.7,29.83,NW,310,0.0,0.0,93,0.00,,,0.00,meteobridge,2013-06-13 05:40:00,
2013-06-13 01:46:00,54.7,52.7,29.83,NW,310,0.0,0.0,93,0.00,,,0.00,meteobridge,2013-06-13 05:46:00,
2013-06-13 01:51:00,54.7,52.7,29.83,NW,310,0.0,0.0,93,0.00,,,0.00,meteobridge,2013-06-13 05:51:00,
2013-06-13 01:56:00,54.7,52.7,29.83,NW,310,0.0,0.0,93,0.00,,,0.00,meteobridge,2013-06-13 05:56:00,
2013-06-13 02:01:00,54.5,52.5,29.83,NW,310,0.0,0.0,93,0.00,,,0.00,meteobridge,2013-06-13 06:01:00,
2013-06-13 02:06:00,54.3,52.3,29.83,NW,310,0.0,0.0,93,0.00,,,0.00,meteobridge,2013-06-13 06:06:00,
2013-06-13 02:12:00,54.3,52.3,29.82,NW,310,0.0,0.0,93,0.00,,,0.00,meteobridge,2013-06-13 06:12:00,
2013-06-13 02:17:00,54.3,52.3,29.82,NW,310,0.0,0.0,93,0.00,,,0.00,meteobridge,2013-06-13 06:17:00,
2013-06-13 02:22:00,54.1,52.5,29.82,NW,310,0.0,0.0,94,0.00,,,0.00,meteobridge,2013-06-13 06:22:00,
2013-06-13 02:28:00,54.1,52.5,29.82,NW,310,0.0,0.0,94,0.00,,,0.00,meteobridge,2013-06-13 06:28:00,
2013-06-13 02:33:00,54.0,52.0,29.81,NW,310,0.0,0.0,93,0.00,,,0.00,meteobridge,2013-06-13 06:33:00,
2013-06-13 02:38:00,54.0,52.0,29.82,NW,310,0.0,0.0,93,0.00,,,0.00,meteobridge,2013-06-13 06:38:00,
2013-06-13 02:44:00,53.8,51.8,29.82,NW,310,0.0,0.0,93,0.00,,,0.00,meteobridge,2013-06-13 06:44:00,
2013-06-13 02:50:00,53.8,51.8,29.83,NW,310,0.0,0.0,93,0.00,,,0.00,meteobridge,2013-06-13 06:50:00,
2013-06-13 02:55:00,53.6,51.6,29.83,NW,310,0.0,0.0,93,0.00,,,0.00,meteobridge,2013-06-13 06:55:00,
2013-06-13 03:00:00,53.4,51.8,29.83,NW,310,0.0,0.0,94,0.00,,,0.00,meteobridge,2013-06-13 07:00:00,
2013-06-13 03:06:00,53.4,51.8,29.83,NW,310,0.0,0.0,94,0.00,,,0.00,meteobridge,2013-06-13 07:06:00,
2013-06-13 03:11:00,53.2,51.6,29.83,NW,310,0.0,0.0,94,0.00,,,0.00,meteobridge,2013-06-13 07:11:00,
2013-06-13 03:16:00,53.2,51.6,29.83,NW,310,0.0,0.0,94,0.00,,,0.00,meteobridge,2013-06-13 07:16:00,
2013-06-13 03:21:00,53.2,51.6,29.83,NW,310,0.0,0.0,94,0.00,,,0.00,meteobridge,2013-06-13 07:21:00,
2013-06-13 03:27:00,53.2,51.6,29.83,NW,310,0.0,0.0,94,0.00,,,0.00,meteobridge,2013-06-13 07:27:00,
2013-06-13 03:32:00,53.2,51.8,29.82,NW,310,0.0,0.0,95,0.00,,,0.00,meteobridge,2013-06-13 07:32:00,
2013-06-13 03:37:00,53.1,51.6,29.82,NW,310,0.0,0.0,95,0.00,,,0.00,meteobridge,2013-06-13 07:37:00,
2013-06-13 03:42:00,53.1,51.6,29.82,NW,310,0.0,0.0,95,0.00,,,0.00,meteobridge,2013-06-13 07:42:00,
2013-06-13 03:47:00,53.1,51.6,29.82,NW,310,0.0,0.0,95,0.00,,,0.00,meteobridge,2013-06-13 07:47:00,
2013-06-13 03:53:00,52.9,51.3,29.81,NW,310,0.0,0.0,94,0.00,,,0.00,meteobridge,2013-06-13 07:53:00,
2013-06-13 03:58:00,52.9,51.4,29.82,NW,310,0.0,0.0,95,0.00,,,0.00,meteobridge,2013-06-13 07:58:00,
2013-06-13 04:03:00,52.9,51.4,29.82,NW,310,0.0,0.0,95,0.00,,,0.00,meteobridge,2013-06-13 08:03:00,
2013-06-13 04:09:00,52.9,51.4,29.82,NW,310,0.0,0.0,95,0.00,,,0.00,meteobridge,2013-06-13 08:09:00,
2013-06-13 04:14:00,52.7,51.3,29.82,NW,310,0.0,0.0,95,0.00,,,0.00,meteobridge,2013-06-13 08:14:00,
2013-06-13 04:19:00,52.9,51.4,29.82,NW,310,0.0,0.0,95,0.00,,,0.00,meteobridge,2013-06-13 08:19:00,
2013-06-13 04:25:00,52.9,51.8,29.82,NW,310,0.0,0.0,96,0.00,,,0.00,meteobridge,2013-06-13 08:25:00,
2013-06-13 04:30:00,52.9,51.8,29.82,NW,310,0.0,0.0,96,0.00,,,0.00,meteobridge,2013-06-13 08:30:00,
2013-06-13 04:35:00,52.9,51.8,29.82,NW,310,0.0,0.0,96,0.00,,,0.00,meteobridge,2013-06-13 08:35:00,
2013-06-13 04:41:00,52.9,51.8,29.82,NW,310,0.0,0.0,96,0.00,,,0.00,meteobridge,2013-06-13 08:41:00,
2013-06-13 04:46:00,53.1,52.0,29.82,NW,310,0.0,0.0,96,0.00,,,0.00,meteobridge,2013-06-13 08:46:00,
2013-06-13 04:51:00,53.1,52.2,29.82,NW,310,0.0,0.0,97,0.00,,,0.00,meteobridge,2013-06-13 08:51:00,
2013-06-13 04:57:00,53.2,52.3,29.81,NW,310,0.0,0.0,97,0.00,,,0.00,meteobridge,2013-06-13 08:57:00,
2013-06-13 05:02:00,53.2,52.3,29.81,NW,310,0.0,0.0,97,0.00,,,0.00,meteobridge,2013-06-13 09:02:00,
2013-06-13 05:08:00,53.4,52.5,29.81,NW,310,0.0,0.0,97,0.00,,,0.00,meteobridge,2013-06-13 09:08:00,
2013-06-13 05:13:00,53.6,52.7,29.81,NW,310,0.0,0.0,97,0.00,,,0.00,meteobridge,2013-06-13 09:13:00,
2013-06-13 05:18:00,53.8,52.9,29.82,NW,310,0.0,0.0,97,0.00,,,0.00,meteobridge,2013-06-13 09:18:00,
2013-06-13 05:23:00,53.8,52.9,29.81,NW,310,0.0,0.0,97,0.00,,,0.00,meteobridge,2013-06-13 09:23:00,
2013-06-13 05:28:00,53.8,52.9,29.82,NW,310,0.0,0.0,97,0.00,,,0.00,meteobridge,2013-06-13 09:28:00,
2013-06-13 05:33:00,54.0,53.1,29.82,NW,310,0.0,0.0,97,0.00,,,0.00,meteobridge,2013-06-13 09:33:00,
2013-06-13 05:39:00,54.0,53.1,29.82,NW,310,0.0,0.0,97,0.00,,,0.00,meteobridge,2013-06-13 09:39:00,
2013-06-13 05:45:00,54.0,53.1,29.82,NW,310,0.0,0.0,97,0.00,,,0.00,meteobridge,2013-06-13 09:45:00,
2013-06-13 05:50:00,54.1,53.2,29.82,NW,310,0.0,0.0,97,0.00,,,0.00,meteobridge,2013-06-13 09:50:00,
2013-06-13 05:56:00,54.1,53.2,29.83,NW,310,0.0,0.0,97,0.00,,,0.00,meteobridge,2013-06-13 09:56:00,
2013-06-13 06:01:00,54.1,53.2,29.83,NW,310,0.0,0.0,97,0.00,,,0.00,meteobridge,2013-06-13 10:01:00,
2013-06-13 06:07:00,54.1,53.2,29.83,NW,310,0.0,0.0,97,0.00,,,0.00,meteobridge,2013-06-13 10:07:00,
2013-06-13 06:13:00,54.3,53.4,29.82,NW,310,0.0,0.0,97,0.00,,,0.00,meteobridge,2013-06-13 10:13:00,
2013-06-13 06:18:00,54.3,53.4,29.82,NW,310,0.0,0.0,97,0.00,,,0.00,meteobridge,2013-06-13 10:18:00,
2013-06-13 06:23:00,54.5,53.6,29.82,NW,310,0.0,0.0,97,0.00,,,0.00,meteobridge,2013-06-13 10:23:00,
2013-06-13 06:29:00,54.7,53.8,29.81,NW,310,0.0,0.0,97,0.00,,,0.00,meteobridge,2013-06-13 10:29:00,
2013-06-13 06:34:00,54.7,53.6,29.81,NW,310,0.0,0.0,96,0.00,,,0.00,meteobridge,2013-06-13 10:34:00,
2013-06-13 06:39:00,54.9,53.8,29.81,NW,310,0.0,0.0,96,0.00,,,0.00,meteobridge,2013-06-13 10:39:00,
2013-06-13 06:44:00,54.9,53.8,29.81,NW,310,0.0,0.0,96,0.00,,,0.00,meteobridge,2013-06-13 10:44:00,
2013-06-13 06:49:00,55.0,54.0,29.80,NW,310,0.0,0.0,96,0.00,,,0.00,meteobridge,2013-06-13 10:49:00,
2013-06-13 06:55:00,55.0,54.0,29.80,NW,310,0.0,0.0,96,0.00,,,0.00,meteobridge,2013-06-13 10:55:00,
2013-06-13 07:00:00,55.2,53.8,29.80,NW,310,0.0,0.0,95,0.00,,,0.00,meteobridge,2013-06-13 11:00:00,
2013-06-13 07:05:00,55.2,53.8,29.81,NW,310,0.0,0.0,95,0.00,,,0.00,meteobridge,2013-06-13 11:05:00,
2013-06-13 07:10:00,55.2,53.8,29.80,NW,310,0.0,0.0,95,0.00,,,0.00,meteobridge,2013-06-13 11:10:00,
2013-06-13 07:15:00,55.4,53.8,29.80,NW,310,0.0,0.0,94,0.00,,,0.00,meteobridge,2013-06-13 11:15:00,
2013-06-13 07:20:00,55.4,54.0,29.79,NW,310,0.0,0.0,95,0.00,,,0.00,meteobridge,2013-06-13 11:20:00,
2013-06-13 07:26:00,55.6,54.1,29.79,NW,310,0.0,0.0,95,0.00,,,0.00,meteobridge,2013-06-13 11:26:00,
2013-06-13 07:32:00,55.6,54.1,29.79,NW,310,0.0,0.0,95,0.00,,,0.00,meteobridge,2013-06-13 11:32:00,
2013-06-13 07:37:00,55.6,54.1,29.79,NW,310,0.0,0.0,95,0.00,,,0.00,meteobridge,2013-06-13 11:37:00,
2013-06-13 07:42:00,55.6,54.1,29.78,NW,310,0.0,0.0,95,0.00,,,0.00,meteobridge,2013-06-13 11:42:00,
2013-06-13 07:47:00,55.8,54.3,29.79,NW,310,0.0,0.0,95,0.00,,,0.00,meteobridge,2013-06-13 11:47:00,
2013-06-13 07:52:00,55.8,54.3,29.79,NW,310,0.0,0.0,95,0.00,,,0.00,meteobridge,2013-06-13 11:52:00,
2013-06-13 07:58:00,55.8,54.3,29.79,NW,310,0.0,0.0,95,0.00,,,0.00,meteobridge,2013-06-13 11:58:00,
2013-06-13 08:03:00,55.8,54.3,29.79,NW,310,0.0,0.0,95,0.00,,,0.00,meteobridge,2013-06-13 12:03:00,
2013-06-13 08:08:00,55.8,54.3,29.79,NW,310,0.0,0.0,95,0.00,,,0.00,meteobridge,2013-06-13 12:08:00,
2013-06-13 08:13:00,55.8,54.7,29.78,NW,310,0.0,0.0,96,0.00,,,0.00,meteobridge,2013-06-13 12:13:00,
2013-06-13 08:19:00,55.9,54.9,29.79,NW,310,0.0,0.0,96,0.00,,,0.00,meteobridge,2013-06-13 12:19:00,
2013-06-13 08:24:00,55.9,54.9,29.78,NW,310,0.0,0.0,96,0.00,,,0.00,meteobridge,2013-06-13 12:24:00,
2013-06-13 08:30:00,55.9,54.9,29.78,NW,310,0.0,0.0,96,0.01,,,0.01,meteobridge,2013-06-13 12:30:00,
2013-06-13 08:35:00,55.9,55.0,29.78,NW,310,0.0,0.0,97,0.01,,,0.01,meteobridge,2013-06-13 12:35:00,
2013-06-13 08:41:00,56.1,55.2,29.78,NW,310,0.0,0.0,97,0.02,,,0.02,meteobridge,2013-06-13 12:41:00,
2013-06-13 08:46:00,56.1,55.2,29.78,NW,310,0.0,0.0,97,0.02,,,0.02,meteobridge,2013-06-13 12:46:00,
2013-06-13 08:52:00,56.3,55.4,29.78,NW,310,0.0,0.0,97,0.02,,,0.02,meteobridge,2013-06-13 12:52:00,
2013-06-13 08:57:00,56.3,55.4,29.78,NW,310,0.0,0.0,97,0.02,,,0.02,meteobridge,2013-06-13 12:57:00,
2013-06-13 09:02:00,56.3,55.4,29.78,NW,310,0.0,0.0,97,0.02,,,0.02,meteobridge,2013-06-13 13:02:00,
2013-06-13 09:08:00,56.5,55.9,29.78,NW,310,0.0,0.0,98,0.02,,,0.02,meteobridge,2013-06-13 13:08:00,
2013-06-13 09:13:00,56.5,55.9,29.78,NW,310,0.0,0.0,98,0.02,,,0.02,meteobridge,2013-06-13 13:13:00,
2013-06-13 09:18:00,56.5,55.9,29.78,NW,310,0.0,0.0,98,0.02,,,0.02,meteobridge,2013-06-13 13:18:00,
2013-06-13 09:23:00,56.7,56.1,29.78,NW,310,0.0,0.0,98,0.03,,,0.03,meteobridge,2013-06-13 13:23:00,
2013-06-13 09:28:00,56.8,56.3,29.78,NW,310,0.9,0.9,98,0.02,,,0.03,meteobridge,2013-06-13 13:28:00,
2013-06-13 09:34:00,56.8,56.3,29.76,NW,310,0.0,0.0,98,0.03,,,0.04,meteobridge,2013-06-13 13:34:00,
2013-06-13 09:39:00,56.8,56.3,29.76,NW,310,0.0,0.0,98,0.02,,,0.04,meteobridge,2013-06-13 13:39:00,
2013-06-13 09:44:00,56.8,56.3,29.76,NW,310,0.0,0.0,98,0.02,,,0.04,meteobridge,2013-06-13 13:44:00,
2013-06-13 09:50:00,56.8,56.3,29.76,NW,310,0.0,0.0,98,0.02,,,0.04,meteobridge,2013-06-13 13:50:00,
2013-06-13 09:55:00,56.8,56.3,29.75,NW,310,0.0,0.0,98,0.03,,,0.05,meteobridge,2013-06-13 13:55:00,
2013-06-13 10:00:00,56.8,56.3,29.76,NW,310,0.0,0.0,98,0.03,,,0.05,meteobridge,2013-06-13 14:00:00,
2013-06-13 10:05:00,56.8,56.3,29.77,NW,310,0.0,0.0,98,0.04,,,0.06,meteobridge,2013-06-13 14:05:00,
2013-06-13 10:11:00,57.0,56.5,29.75,NW,310,0.0,0.0,98,0.04,,,0.06,meteobridge,2013-06-13 14:11:00,
2013-06-13 10:17:00,57.0,56.5,29.76,NW,310,0.0,0.0,98,0.05,,,0.07,meteobridge,2013-06-13 14:17:00,
2013-06-13 10:22:00,57.0,56.5,29.75,NW,310,0.0,0.0,98,0.06,,,0.09,meteobridge,2013-06-13 14:22:00,
2013-06-13 10:27:00,57.0,56.5,29.75,NW,310,0.0,0.0,98,0.07,,,0.10,meteobridge,2013-06-13 14:27:00,
2013-06-13 10:32:00,57.0,56.5,29.76,NW,310,0.0,0.0,98,0.08,,,0.12,meteobridge,2013-06-13 14:32:00,
2013-06-13 10:38:00,57.0,56.5,29.78,NW,314,0.0,0.9,98,0.10,,,0.14,meteobridge,2013-06-13 14:38:00,
2013-06-13 10:43:00,57.0,56.5,29.76,NW,315,0.0,0.0,98,0.13,,,0.17,meteobridge,2013-06-13 14:43:00,
2013-06-13 10:49:00,56.8,56.3,29.74,NW,315,0.0,0.0,98,0.16,,,0.20,meteobridge,2013-06-13 14:49:00,
2013-06-13 10:54:00,56.8,56.3,29.75,NW,315,0.0,0.0,98,0.18,,,0.23,meteobridge,2013-06-13 14:54:00,
2013-06-13 11:00:00,56.8,56.3,29.76,NW,315,0.0,0.0,98,0.20,,,0.25,meteobridge,2013-06-13 15:00:00,
2013-06-13 11:05:00,56.8,56.3,29.76,NE,39,0.0,0.9,98,0.20,,,0.26,meteobridge,2013-06-13 15:05:00,
2013-06-13 11:10:00,56.8,56.3,29.75,NE,39,0.0,0.0,98,0.21,,,0.28,meteobridge,2013-06-13 15:10:00,
2013-06-13 11:15:00,56.8,56.3,29.74,ENE,59,0.0,0.9,98,0.22,,,0.29,meteobridge,2013-06-13 15:15:00,
2013-06-13 11:20:00,56.8,56.3,29.73,ENE,59,0.0,0.9,98,0.21,,,0.30,meteobridge,2013-06-13 15:20:00,
2013-06-13 11:26:00,56.7,56.1,29.73,NE,44,0.0,0.9,98,0.20,,,0.31,meteobridge,2013-06-13 15:26:00,
2013-06-13 11:31:00,56.7,56.1,29.72,NE,44,0.0,0.0,98,0.18,,,0.31,meteobridge,2013-06-13 15:31:00,
2013-06-13 11:36:00,56.8,56.3,29.71,NE,44,0.0,0.0,98,0.17,,,0.32,meteobridge,2013-06-13 15:36:00,
2013-06-13 11:42:00,56.8,56.3,29.70,NW,323,0.0,0.0,98,0.15,,,0.32,meteobridge,2013-06-13 15:42:00,
2013-06-13 11:47:00,56.8,56.3,29.70,ENE,70,0.0,0.9,98,0.14,,,0.33,meteobridge,2013-06-13 15:47:00,
2013-06-13 11:52:00,56.8,56.3,29.69,SE,140,0.0,2.0,98,0.11,,,0.33,meteobridge,2013-06-13 15:52:00,
2013-06-13 11:57:00,56.8,56.3,29.68,West,264,0.0,2.0,98,0.10,,,0.34,meteobridge,2013-06-13 15:57:00,
2013-06-13 12:02:00,56.8,56.3,29.70,NE,45,0.0,0.9,98,0.09,,,0.35,meteobridge,2013-06-13 16:02:00,
2013-06-13 12:08:00,57.0,56.5,29.71,NE,41,0.0,0.9,98,0.08,,,0.36,meteobridge,2013-06-13 16:08:00,
2013-06-13 12:14:00,57.0,56.5,29.71,NNE,30,0.0,0.9,98,0.08,,,0.37,meteobridge,2013-06-13 16:14:00,
2013-06-13 12:19:00,57.4,56.8,29.70,North,350,0.9,2.0,98,0.09,,,0.39,meteobridge,2013-06-13 16:19:00,
2013-06-13 12:24:00,57.2,56.8,29.71,NNW,343,0.0,0.9,99,0.11,,,0.41,meteobridge,2013-06-13 16:24:00,
2013-06-13 12:30:00,57.4,57.0,29.71,NNW,346,0.0,0.9,99,0.12,,,0.43,meteobridge,2013-06-13 16:30:00,
2013-06-13 12:35:00,57.4,57.0,29.70,NNE,26,0.9,0.9,99,0.13,,,0.45,meteobridge,2013-06-13 16:35:00,
2013-06-13 12:40:00,57.2,56.7,29.71,NNW,344,0.0,2.0,98,0.14,,,0.46,meteobridge,2013-06-13 16:40:00,
2013-06-13 12:46:00,57.4,57.0,29.70,ESE,115,0.9,2.0,99,0.15,,,0.48,meteobridge,2013-06-13 16:46:00,
2013-06-13 12:51:00,57.2,56.7,29.70,NE,36,0.0,0.0,98,0.16,,,0.49,meteobridge,2013-06-13 16:51:00,
2013-06-13 12:57:00,57.2,56.7,29.70,NE,36,0.0,0.0,98,0.15,,,0.50,meteobridge,2013-06-13 16:57:00,
2013-06-13 13:02:00,57.2,56.7,29.70,East,98,0.0,2.0,98,0.14,,,0.50,meteobridge,2013-06-13 17:02:00,
2013-06-13 13:07:00,57.2,56.7,29.68,East,98,0.0,0.0,98,0.14,,,0.50,meteobridge,2013-06-13 17:07:00,
2013-06-13 13:12:00,57.2,56.7,29.67,ENE,59,0.9,2.0,98,0.13,,,0.50,meteobridge,2013-06-13 17:12:00,
2013-06-13 13:17:00,57.2,56.7,29.66,NNE,30,0.9,2.0,98,0.11,,,0.50,meteobridge,2013-06-13 17:17:00,
2013-06-13 13:22:00,57.4,57.0,29.65,NNE,30,0.0,0.9,99,0.10,,,0.50,meteobridge,2013-06-13 17:22:00,
2013-06-13 13:28:00,57.4,57.0,29.65,ESE,107,0.0,0.9,99,0.08,,,0.50,meteobridge,2013-06-13 17:28:00,
2013-06-13 13:33:00,57.7,57.4,29.65,ENE,65,0.0,2.0,99,0.06,,,0.50,meteobridge,2013-06-13 17:33:00,
2013-06-13 13:38:00,58.1,57.7,29.66,NNE,24,0.0,0.0,99,0.04,,,0.50,meteobridge,2013-06-13 17:38:00,
2013-06-13 13:43:00,58.3,57.9,29.66,North,355,0.0,2.0,99,0.02,,,0.50,meteobridge,2013-06-13 17:43:00,
2013-06-13 13:49:00,58.3,57.9,29.65,North,5,0.0,2.9,99,0.01,,,0.50,meteobridge,2013-06-13 17:49:00,
2013-06-13 13:54:00,58.3,57.9,29.65,North,5,0.0,0.9,99,0.00,,,0.50,meteobridge,2013-06-13 17:54:00,
2013-06-13 13:59:00,58.3,57.9,29.65,NNW,335,0.0,2.0,99,0.00,,,0.50,meteobridge,2013-06-13 17:59:00,
2013-06-13 14:04:00,58.3,57.9,29.65,NE,44,0.9,0.9,99,0.00,,,0.50,meteobridge,2013-06-13 18:04:00,
2013-06-13 14:10:00,58.1,57.7,29.65,ENE,65,0.0,0.9,99,0.00,,,0.50,meteobridge,2013-06-13 18:10:00,
2013-06-13 14:15:00,57.9,57.6,29.65,NNE,29,2.0,2.0,99,0.00,,,0.50,meteobridge,2013-06-13 18:15:00,
2013-06-13 14:20:00,57.7,57.2,29.65,NE,55,0.0,2.9,98,0.00,,,0.50,meteobridge,2013-06-13 18:20:00,
2013-06-13 14:25:00,57.6,57.0,29.64,NW,311,0.0,2.9,98,0.00,,,0.50,meteobridge,2013-06-13 18:25:00,
2013-06-13 14:30:00,57.4,56.8,29.65,WNW,288,0.0,2.9,98,0.00,,,0.50,meteobridge,2013-06-13 18:30:00,
2013-06-13 14:36:00,57.4,56.8,29.65,NE,34,0.0,0.9,98,0.00,,,0.50,meteobridge,2013-06-13 18:36:00,
2013-06-13 14:41:00,57.4,56.8,29.66,NNE,30,2.9,2.9,98,0.00,,,0.50,meteobridge,2013-06-13 18:41:00,
2013-06-13 14:46:00,57.2,56.7,29.66,NE,51,0.9,4.0,98,0.00,,,0.50,meteobridge,2013-06-13 18:46:00,
2013-06-13 14:52:00,57.2,56.7,29.66,NNE,22,0.0,2.0,98,0.00,,,0.50,meteobridge,2013-06-13 18:52:00,
2013-06-13 14:57:00,57.0,56.5,29.66,ESE,103,0.0,4.0,98,0.00,,,0.50,meteobridge,2013-06-13 18:57:00,
2013-06-13 15:02:00,57.0,56.5,29.65,ENE,69,0.9,2.0,98,0.00,,,0.50,meteobridge,2013-06-13 19:02:00,
2013-06-13 15:08:00,57.0,56.5,29.65,NNE,13,0.0,2.9,98,0.00,,,0.50,meteobridge,2013-06-13 19:08:00,
2013-06-13 15:13:00,57.0,56.5,29.65,NNE,15,0.0,0.0,98,0.00,,,0.50,meteobridge,2013-06-13 19:13:00,
2013-06-13 15:18:00,57.0,56.5,29.64,NNE,24,0.0,0.9,98,0.00,,,0.50,meteobridge,2013-06-13 19:18:00,
2013-06-13 15:23:00,57.0,56.5,29.64,NE,48,0.0,2.0,98,0.00,,,0.50,meteobridge,2013-06-13 19:23:00,
2013-06-13 15:28:00,57.0,56.5,29.63,ENE,68,0.0,0.0,98,0.00,,,0.50,meteobridge,2013-06-13 19:28:00,
2013-06-13 15:34:00,57.0,56.5,29.63,East,94,0.0,0.9,98,0.00,,,0.50,meteobridge,2013-06-13 19:34:00,
2013-06-13 15:39:00,57.0,56.5,29.63,North,5,0.0,0.9,98,0.00,,,0.50,meteobridge,2013-06-13 19:39:00,
2013-06-13 15:44:00,57.0,56.5,29.62,NE,46,0.9,2.0,98,0.00,,,0.50,meteobridge,2013-06-13 19:44:00,
2013-06-13 15:50:00,57.2,56.7,29.62,North,10,0.0,2.0,98,0.00,,,0.50,meteobridge,2013-06-13 19:50:00,
2013-06-13 15:55:00,57.0,56.5,29.62,NNE,12,0.0,2.0,98,0.00,,,0.50,meteobridge,2013-06-13 19:55:00,
2013-06-13 16:00:00,57.0,56.5,29.62,NNE,28,0.0,2.0,98,0.00,,,0.50,meteobridge,2013-06-13 20:00:00,
2013-06-13 16:05:00,57.0,56.5,29.62,NE,53,0.9,0.9,98,0.00,,,0.50,meteobridge,2013-06-13 20:05:00,
2013-06-13 16:11:00,57.0,56.5,29.62,NNE,24,2.9,2.9,98,0.00,,,0.50,meteobridge,2013-06-13 20:11:00,
2013-06-13 16:16:00,57.0,56.5,29.61,East,98,0.0,0.9,98,0.00,,,0.50,meteobridge,2013-06-13 20:16:00,
2013-06-13 16:21:00,57.0,56.5,29.61,NNE,30,0.0,0.9,98,0.00,,,0.50,meteobridge,2013-06-13 20:21:00,
2013-06-13 16:27:00,57.0,56.5,29.61,NNE,14,0.0,0.0,98,0.00,,,0.50,meteobridge,2013-06-13 20:27:00,
2013-06-13 16:32:00,57.0,56.5,29.60,ENE,59,0.0,2.0,98,0.00,,,0.50,meteobridge,2013-06-13 20:32:00,
2013-06-13 16:37:00,57.0,56.5,29.60,NNW,336,0.0,0.9,98,0.00,,,0.50,meteobridge,2013-06-13 20:37:00,
2013-06-13 16:42:00,57.0,56.5,29.60,North,0,0.9,2.0,98,0.00,,,0.50,meteobridge,2013-06-13 20:42:00,
2013-06-13 16:48:00,56.8,56.3,29.60,North,0,0.0,2.0,98,0.00,,,0.50,meteobridge,2013-06-13 20:48:00,
2013-06-13 16:53:00,56.8,56.3,29.60,East,96,0.0,0.9,98,0.00,,,0.50,meteobridge,2013-06-13 20:53:00,
2013-06-13 16:59:00,56.8,56.3,29.59,ENE,67,0.0,0.9,98,0.00,,,0.50,meteobridge,2013-06-13 20:59:00,
2013-06-13 17:04:00,56.8,56.3,29.60,North,9,0.0,4.0,98,0.00,,,0.50,meteobridge,2013-06-13 21:04:00,
2013-06-13 17:10:00,56.7,56.1,29.59,NE,46,0.0,0.9,98,0.00,,,0.50,meteobridge,2013-06-13 21:10:00,
2013-06-13 17:15:00,56.7,56.1,29.59,ENE,71,0.0,2.0,98,0.00,,,0.50,meteobridge,2013-06-13 21:15:00,
2013-06-13 17:21:00,56.7,56.1,29.59,NNW,341,0.0,0.9,98,0.01,,,0.51,meteobridge,2013-06-13 21:21:00,
2013-06-13 17:27:00,56.7,56.1,29.59,NE,34,0.0,0.9,98,0.01,,,0.51,meteobridge,2013-06-13 21:27:00,
2013-06-13 17:32:00,56.7,56.1,29.59,NE,34,0.0,0.0,98,0.01,,,0.51,meteobridge,2013-06-13 21:32:00,
2013-06-13 17:37:00,56.7,56.1,29.58,NE,34,0.0,0.0,98,0.01,,,0.51,meteobridge,2013-06-13 21:37:00,
2013-06-13 17:42:00,56.7,56.1,29.58,NW,324,0.0,0.9,98,0.01,,,0.51,meteobridge,2013-06-13 21:42:00,
2013-06-13 17:48:00,56.7,56.1,29.58,NW,324,0.0,0.9,98,0.01,,,0.51,meteobridge,2013-06-13 21:48:00,
2013-06-13 17:53:00,56.5,55.9,29.58,NW,320,0.0,0.9,98,0.03,,,0.53,meteobridge,2013-06-13 21:53:00,
2013-06-13 17:58:00,56.5,55.9,29.58,NW,321,0.0,0.9,98,0.04,,,0.54,meteobridge,2013-06-13 21:58:00,
2013-06-13 18:03:00,56.5,55.9,29.58,NW,321,0.0,0.0,98,0.05,,,0.55,meteobridge,2013-06-13 22:03:00,
2013-06-13 18:09:00,56.5,55.9,29.58,NW,321,0.0,0.0,98,0.07,,,0.57,meteobridge,2013-06-13 22:09:00,
2013-06-13 18:14:00,56.5,55.9,29.58,NW,320,0.0,0.9,98,0.07,,,0.57,meteobridge,2013-06-13 22:14:00,
2013-06-13 18:20:00,56.3,55.9,29.58,NW,321,0.0,0.0,99,0.07,,,0.58,meteobridge,2013-06-13 22:20:00,
2013-06-13 18:25:00,56.3,55.9,29.57,NW,321,0.0,0.0,99,0.07,,,0.58,meteobridge,2013-06-13 22:25:00,
2013-06-13 18:31:00,56.3,55.9,29.58,NW,320,0.0,0.0,99,0.08,,,0.59,meteobridge,2013-06-13 22:31:00,
2013-06-13 18:36:00,56.1,55.8,29.58,NW,320,0.0,0.9,99,0.08,,,0.59,meteobridge,2013-06-13 22:36:00,
2013-06-13 18:41:00,56.1,55.8,29.58,NW,320,0.0,0.0,99,0.09,,,0.60,meteobridge,2013-06-13 22:41:00,
2013-06-13 18:46:00,56.1,55.8,29.58,NW,321,0.0,0.0,99,0.11,,,0.62,meteobridge,2013-06-13 22:46:00,
2013-06-13 18:52:00,56.1,55.8,29.58,NNW,327,0.0,0.9,99,0.11,,,0.64,meteobridge,2013-06-13 22:52:00,
2013-06-13 18:57:00,56.1,55.8,29.58,NNW,327,0.0,0.0,99,0.12,,,0.66,meteobridge,2013-06-13 22:57:00,
2013-06-13 19:02:00,55.9,55.4,29.58,NNW,327,0.0,2.0,98,0.13,,,0.68,meteobridge,2013-06-13 23:02:00,
2013-06-13 19:08:00,55.9,55.4,29.58,NNW,327,0.0,0.9,98,0.13,,,0.70,meteobridge,2013-06-13 23:08:00,
2013-06-13 19:13:00,55.9,55.4,29.58,NNW,331,0.0,0.9,98,0.14,,,0.72,meteobridge,2013-06-13 23:13:00,
2013-06-13 19:19:00,55.8,55.2,29.58,NNW,331,0.0,0.9,98,0.15,,,0.73,meteobridge,2013-06-13 23:19:00,
2013-06-13 19:24:00,55.8,55.4,29.58,NNW,331,0.0,0.9,99,0.16,,,0.74,meteobridge,2013-06-13 23:24:00,
2013-06-13 19:30:00,55.8,55.4,29.58,NE,34,0.0,0.9,99,0.16,,,0.75,meteobridge,2013-06-13 23:30:00,
2013-06-13 19:35:00,55.6,55.2,29.58,NNE,28,2.0,2.0,99,0.17,,,0.76,meteobridge,2013-06-13 23:35:00,
2013-06-13 19:40:00,55.6,55.2,29.58,NNE,19,0.0,0.0,99,0.16,,,0.77,meteobridge,2013-06-13 23:40:00,
2013-06-13 19:46:00,55.6,55.2,29.58,NNE,19,0.0,0.9,99,0.16,,,0.78,meteobridge,2013-06-13 23:46:00,
2013-06-13 19:51:00,55.4,55.0,29.58,NNE,19,0.9,0.9,99,0.15,,,0.79,meteobridge,2013-06-13 23:51:00,
2013-06-13 19:56:00,55.4,54.9,29.58,NNE,19,0.0,0.9,98,0.14,,,0.80,meteobridge,2013-06-13 23:56:00,
2013-06-13 20:01:00,55.2,54.7,29.57,NE,34,0.0,0.9,98,0.13,,,0.00,meteobridge,2013-06-14 00:01:00,
2013-06-13 20:06:00,55.2,54.7,29.57,NNE,25,0.0,0.9,98,0.13,,,0.02,meteobridge,2013-06-14 00:06:00,
2013-06-13 20:11:00,55.2,54.9,29.57,NNE,25,0.0,0.0,99,0.13,,,0.03,meteobridge,2013-06-14 00:11:00,
2013-06-13 20:17:00,55.2,54.9,29.57,NNE,25,0.0,0.0,99,0.12,,,0.04,meteobridge,2013-06-14 00:17:00,
2013-06-13 20:23:00,55.0,54.7,29.57,NNE,25,0.0,0.0,99,0.13,,,0.06,meteobridge,2013-06-14 00:23:00,
2013-06-13 20:28:00,55.0,54.7,29.58,NNE,25,0.0,0.0,99,0.13,,,0.07,meteobridge,2013-06-14 00:28:00,
2013-06-13 20:33:00,55.0,54.7,29.57,NNE,25,0.9,0.9,99,0.13,,,0.08,meteobridge,2013-06-14 00:33:00,
2013-06-13 20:39:00,54.9,54.5,29.57,NNE,25,0.0,0.0,99,0.14,,,0.10,meteobridge,2013-06-14 00:39:00,
2013-06-13 20:44:00,54.9,54.5,29.57,NNE,29,0.9,0.9,99,0.14,,,0.11,meteobridge,2013-06-14 00:44:00,
2013-06-13 20:49:00,54.9,54.5,29.57,ENE,59,0.0,0.9,99,0.15,,,0.13,meteobridge,2013-06-14 00:49:00,
2013-06-13 20:54:00,54.9,54.5,29.57,NE,56,0.9,0.9,99,0.16,,,0.15,meteobridge,2013-06-14 00:54:00,
2013-06-13 21:00:00,54.7,54.3,29.57,NNE,29,0.9,0.9,99,0.17,,,0.17,meteobridge,2013-06-14 01:00:00,
2013-06-13 21:05:00,54.7,54.3,29.57,NNE,20,0.9,0.9,99,0.17,,,0.19,meteobridge,2013-06-14 01:05:00,
2013-06-13 21:10:00,54.7,54.3,29.57,NNE,20,0.0,0.9,99,0.18,,,0.21,meteobridge,2013-06-14 01:10:00,
2013-06-13 21:16:00,54.5,54.1,29.58,NE,37,0.0,0.9,99,0.19,,,0.23,meteobridge,2013-06-14 01:16:00,
2013-06-13 21:21:00,54.5,54.1,29.59,NE,37,0.0,0.0,99,0.20,,,0.25,meteobridge,2013-06-14 01:21:00,
2013-06-13 21:26:00,54.5,54.1,29.59,SSE,157,0.0,0.9,99,0.20,,,0.27,meteobridge,2013-06-14 01:26:00,
2013-06-13 21:32:00,54.5,54.1,29.60,SSE,157,0.0,0.0,99,0.21,,,0.29,meteobridge,2013-06-14 01:32:00,
2013-06-13 21:37:00,54.3,54.0,29.59,NE,44,0.0,0.9,99,0.21,,,0.31,meteobridge,2013-06-14 01:37:00,
2013-06-13 21:43:00,54.3,54.0,29.59,NE,44,0.0,0.0,99,0.21,,,0.33,meteobridge,2013-06-14 01:43:00,
2013-06-13 21:48:00,54.3,54.0,29.60,NE,44,0.0,0.0,99,0.21,,,0.35,meteobridge,2013-06-14 01:48:00,
2013-06-13 21:54:00,54.1,53.8,29.60,ENE,59,0.0,0.9,99,0.22,,,0.37,meteobridge,2013-06-14 01:54:00,
2013-06-13 21:59:00,54.1,53.8,29.59,ENE,59,0.9,0.9,99,0.22,,,0.39,meteobridge,2013-06-14 01:59:00,
2013-06-13 22:04:00,54.0,53.6,29.59,ENE,59,0.0,0.0,99,0.22,,,0.41,meteobridge,2013-06-14 02:04:00,
2013-06-13 22:09:00,54.0,53.6,29.58,ENE,65,0.0,2.0,99,0.21,,,0.42,meteobridge,2013-06-14 02:09:00,
2013-06-13 22:14:00,53.8,53.4,29.58,ENE,60,0.0,0.9,99,0.21,,,0.44,meteobridge,2013-06-14 02:14:00,
2013-06-13 22:20:00,53.8,53.4,29.59,ENE,60,0.0,0.9,99,0.20,,,0.45,meteobridge,2013-06-14 02:20:00,
2013-06-13 22:25:00,53.8,53.4,29.59,ENE,60,0.9,0.9,99,0.20,,,0.47,meteobridge,2013-06-14 02:25:00,
2013-06-13 22:30:00,53.6,53.2,29.59,ENE,57,0.0,2.0,99,0.19,,,0.48,meteobridge,2013-06-14 02:30:00,
2013-06-13 22:35:00,53.4,53.1,29.59,ENE,57,0.0,0.9,99,0.19,,,0.50,meteobridge,2013-06-14 02:35:00,
2013-06-13 22:41:00,53.2,52.9,29.58,ENE,57,0.0,0.9,99,0.18,,,0.51,meteobridge,2013-06-14 02:41:00,
2013-06-13 22:46:00,53.2,52.9,29.57,ENE,57,0.0,0.9,99,0.17,,,0.52,meteobridge,2013-06-14 02:46:00,
2013-06-13 22:51:00,53.1,52.7,29.57,ENE,61,0.0,0.0,99,0.17,,,0.54,meteobridge,2013-06-14 02:51:00,
2013-06-13 22:57:00,53.1,52.5,29.57,NE,51,0.0,2.0,98,0.16,,,0.55,meteobridge,2013-06-14 02:57:00,
2013-06-13 23:02:00,52.9,52.3,29.57,ENE,60,0.0,2.0,98,0.15,,,0.56,meteobridge,2013-06-14 03:02:00,
2013-06-13 23:08:00,52.7,52.3,29.57,ENE,60,0.0,0.9,99,0.16,,,0.58,meteobridge,2013-06-14 03:08:00,
2013-06-13 23:13:00,52.5,52.2,29.57,East,92,0.0,2.0,99,0.15,,,0.59,meteobridge,2013-06-14 03:13:00,
2013-06-13 23:18:00,52.5,52.2,29.57,ENE,69,0.9,0.9,99,0.15,,,0.60,meteobridge,2013-06-14 03:18:00,
2013-06-13 23:24:00,52.5,52.2,29.57,NE,53,0.0,2.0,99,0.14,,,0.61,meteobridge,2013-06-14 03:24:00,
2013-06-13 23:29:00,52.5,52.2,29.57,NE,53,0.0,2.0,99,0.14,,,0.62,meteobridge,2013-06-14 03:29:00,
2013-06-13 23:34:00,52.3,52.0,29.57,ENE,69,0.9,0.9,99,0.13,,,0.63,meteobridge,2013-06-14 03:34:00,
2013-06-13 23:40:00,52.3,52.0,29.58,NNE,19,0.0,2.0,99,0.13,,,0.64,meteobridge,2013-06-14 03:40:00,
2013-06-13 23:46:00,52.3,52.0,29.58,NNE,19,0.0,0.9,99,0.12,,,0.65,meteobridge,2013-06-14 03:46:00,
2013-06-13 23:51:00,52.3,52.0,29.58,NNE,19,0.0,0.9,99,0.12,,,0.66,meteobridge,2013-06-14 03:51:00,
2013-06-13 23:57:00,52.2,51.8,29.58,NNE,19,0.0,0.9,99,0.11,,,0.67,meteobridge,2013-06-14 03:57:00,